Dewpoint
70 71 69 68 68 67 67 68 67 68 69 67 66 68 69 71 73 73 73 74 73 74 75 76 77 77 75 76 77 75 76 74 75 73 74 73 72 70 68 69 71 69
71 71 71 69 69 70 69 67 68 68 70 70 67 66 69 71 71 73 73 73 74 73 75 74 76 76 77 75 76 76 76 75 74 71 73 73 72 70 70 71 70 72
70 70 69 68 66 68 66 68 69 68 66 66 67 69 67 69 71 73 74 74 73 71 73 75 76 76 75 76 77 75 74 76 75 73 74 74 72 71 71 69 69 70
71 70 68 67 67 66 66 67 68 69 67 65 65 65 66 64 69 71 73 74 75 74 73 73 75 74 75 76 77 75 75 76 75 76 76 75 73 71 72 71 69 69
69 70 68 68 67 68 68 67 65 66 66 65 65 67 69 71 71 70 72 73 75 73 73 73 74 74 76 77 77 76 75 74 75 77 76 75 76 73 71 71 73 70
70 71 71 69 69 69 66 66 66 64 65 64 66 66 68 69 70 70 69 69 69 69 68 69 71 72 73 75 76 76 74 72 72 76 75 75 73 72 69 72 73 72
68 70 69 69 68 68 67 67 67 67 64 64 66 66 67 67 69 70 71 70 68 70 68 71 73 72 73 75 76 77 76 76 76 77 76 74 74 74 71 73 74 74
68 68 69 69 67 67 67 65 66 67 67 66 65 68 68 67 68 69 70 70 69 69 71 71 73 75 73 73 74 76 75 72 72 74 76 75 74 75 73 71 75 75
69 69 68 68 66 66 64 64 65 66 68 68 66 66 69 69 69 69 70 71 71 71 72 72 73 73 73 73 73 74 75 73 70 73 73 73 73 73 72 73 73 74
69 69 67 66 65 66 65 65 64 66 68 69 70 69 71 73 72 71 72 73 72 73 73 74 73 73 72 73 74 74 74 74 74 74 73 72 72 72 71 72 72 73
68 68 68 68 66 65 65 65 64 65 69 71 71 71 73 73 73 73 73 74 70 71 72 73 72 72 73 72 72 72 73 72 73 74 74 74 73 73 73 73 73 72
69 68 67 68 67 66 66 65 65 66 69 72 72 71 72 71 73 73 73 73 72 71 72 73 74 73 74 74 72 72 72 73 73 74 73 74 73 72 73 73 72 73
69 68 68 67 67 66 65 66 66 68 69 72 72 71 71 72 73 74 73 72 73 72 71 73 74 73 74 75 74 73 73 74 72 73 73 74 74 73 74 74 73 72
73 71 70 70 69 70 67 65 66 67 70 71 72 72 70 70 71 71 71 72 72 72 72 73 74 74 75 76 75 74 73 73 74 73 72 73 73 74 74 73 73 73
74 74 73 72 73 73 69 67 67 69 71 72 72 72 69 69 70 70 71 72 73 73 73 72 73 73 74 74 74 74 74 73 73 72 72 73 73 73 73 74 74 74
76 76 75 75 74 74 74 71 70 70 70 71 71 72 73 73 72 72 71 71 72 73 73 72 72 71 74 75 77 75 74 73 72 73 74 74 74 75 72 72 72 72
77 76 76 76 76 75 74 74 72 71 72 73 73 73 73 75 74 73 72 70 70 70 71 70 69 70 76 71 71 74 74 74 75 76 76 77 74 75 75 72 70 69
76 76 76 76 76 76 76 75 73 73 73 75 74 73 75 73 73 73 74 72 70 70 69 69 70 72 68 69 71 71 74 74 75 75 75 75 75 74 73 72 70 72
74 75 75 75 76 76 76 76 76 75 74 74 74 74 73 74 75 73 73 73 71 71 70 69 72 67 66 68 68 69 71 75 74 75 75 75 74 74 74 75 75 74
74 74 74 75 75 75 76 76 75 75 74 74 76 77 76 75 74 74 73 73 73 73 74 71 72 68 65 66 66 67 69 72 75 75 74 75 75 74 73 74 75 75
74 73 74 74 75 75 75 75 75 75 75 76 76 76 75 76 76 74 73 72 72 72 74 74 69 63 63 64 64 65 66 71 75 74 73 73 73 73 74 74 75 74
72 72 72 74 74 75 75 74 74 75 75 75 75 75 75 74 74 74 74 72 72 73 73 72 69 61 62 63 62 63 66 71 74 75 73 71 72 73 74 75 74 74
72 72 73 74 74 74 74 74 74 73 74 75 73 74 75 74 74 74 74 74 73 72 71 73 66 63 59 60 61 62 66 73 73 72 73 72 73 73 73 73 71 72
72 72 72 72 73 73 73 73 74 74 74 74 73 72 73 73 74 73 73 73 72 72 71 71 68 64 58 59 60 61 68 73 74 73 73 74 73 72 73 72 70 70
72 72 72 71 72 71 72 72 72 72 73 73 73 72 71 72 71 72 71 71 72 72 71 71 69 65 57 58 59 61 65 73 74 74 73 72 72 72 72 71 69 67
71 71 71 71 71 71 72 72 73 72 72 72 72 72 71 71 72 71 70 69 69 70 69 70 70 68 62 54 56 61 64 71 73 73 72 72 72 71 70 71 69 66